User: anonymous   Login
Location: Unspecified
(0.0000°N, 0.0000°E)
Time: 12:40:33
(UTC+02:00)
Language:

Iridium 15 - Orbit

View from above orbital plane
View from above orbital plane
View from above satellite
View from above satellite

Ground track
Ground track

The orbit data is extracted from the following two-line orbital elements,

1 24869U 97034A   15214.32481442  .00000299  00000-0  99687-4 0  9996
2 24869 086.3985 308.0814 0002256 094.7728 324.9000 14.34220459945758
Epoch (UTC): 02 August 2015 07:47:43
Eccentricity: 0.0002256
inclination: 86.3985°
perigee height: 776 km
apogee height: 779 km
right ascension of ascending node: 308.0814°
argument of perigee: 94.7728°
revolutions per day: 14.34220459
mean anomaly at epoch: 324.9000°
orbit number at epoch: 94575

The dashed part of the orbit path shows where the satellite is in the earth's shadow,  

DLR